User: anonymous   Login
Location: Morehead State University
(38.1872°N, 83.4339°W)
Time: 10:39:48
(UTC-04:00)
Language:

Okean 2 - Orbit

View from above orbital plane
View from above orbital plane
View from above satellite
View from above satellite

Ground track
Ground track

The orbit data is extracted from the following two-line orbital elements,

1 20510U 90018A   15241.12194852  .00001015  00000-0  83750-4 0  9995
2 20510 082.5138 082.9540 0013805 048.2927 096.8157 14.97922895382896
Epoch (UTC): 29 August 2015 02:55:36
Eccentricity: 0.0013805
inclination: 82.5138°
perigee height: 564 km
apogee height: 583 km
right ascension of ascending node: 82.9540°
argument of perigee: 48.2927°
revolutions per day: 14.97922895
mean anomaly at epoch: 96.8157°
orbit number at epoch: 38289

The dashed part of the orbit path shows where the satellite is in the earth's shadow,  

DLR